This demonstration page uses our WeatherBlox Daily Observations layout. Learn more.

Left ArrowRight Arrow

Hourly Observations for May 2, 2019

Temp ( °F °C ) Dew Point ( °F °C ) Humidity (%) Winds ( mph kmh ) Pressure ( in mb ) Visibility ( mi km ) Precip ( " mm )
12:15 am 00:15 Cloudy with Mist and Fog 43 6.3 43 6.3 100 100 N 7 11 30.20 1023 3 5 N/A
12:35 am 00:35 Cloudy with Mist and Fog 43 6 43 6 100 100 N 9 15 30.22 1023 4 6 N/A
12:55 am 00:55 Cloudy 42 5.8 42 5.8 100 100 N 8 13 30.22 1023 10 16 N/A
1:15 am 01:15 Cloudy 42 5.8 42 5.8 100 100 N 7 11 30.23 1024 10 16 N/A
1:35 am 01:35 Cloudy 42 5.7 42 5.7 100 100 N 8 13 30.21 1023 10 16 N/A
1:55 am 01:55 Cloudy 42 5.3 42 5.3 100 100 N 6 9 30.23 1024 10 16 N/A
2:15 am 02:15 Cloudy 41 5 41 5 100 100 N 7 11 30.21 1023 10 16 N/A
2:35 am 02:35 Mostly Cloudy 41 4.9 41 4.9 100 100 N 5 7 30.21 1023 10 16 N/A
2:55 am 02:55 Clear 40 4.5 40 4.5 100 100 N 7 11 30.21 1023 10 16 N/A
3:15 am 03:15 Clear 39 3.7 39 3.7 100 100 NNW 6 9 30.22 1023 10 16 N/A
3:35 am 03:35 Clear 37 3 37 3 100 100 NNW 8 13 30.22 1023 10 16 N/A
3:55 am 03:55 Clear 36 2.2 36 2.2 100 100 NNW 3 6 30.23 1024 10 16 N/A
4:15 am 04:15 Mostly Cloudy with Mist and Fog 35 1.5 35 1.5 100 100 NW 6 9 30.24 1024 2 2 N/A
4:35 am 04:35 Cloudy with Mist and Fog 34 0.9 34 0.9 100 100 NW 6 9 30.25 1024 1 1 N/A
4:55 am 04:55 Cloudy with Mist and Fog 33 0.8 33 0.8 100 100 WNW 6 9 30.26 1025 1 1 N/A
5:15 am 05:15 Cloudy with Mist and Fog 33 0.6 33 0.6 100 100 NW 8 13 30.27 1025 1 2 N/A
5:35 am 05:35 Cloudy with Mist and Fog 32 undefined 32 undefined 100 100 NW 7 11 30.29 1026 1 1 N/A
5:55 am 05:55 Mostly Cloudy with Mist and Fog 33 0.6 33 0.6 100 100 NNW 9 15 30.28 1025 4 6 N/A
6:15 am 06:15 Partly Cloudy 34 1.2 34 1.2 100 100 NNW 9 15 30.27 1025 10 16 N/A
6:35 am 06:35 Sunny 34 1 34 1 100 100 NNW 9 15 30.28 1025 10 16 N/A
6:55 am 06:55 Sunny 33 0.7 33 0.7 100 100 NNW 8 13 30.28 1025 10 16 N/A
7:15 am 07:15 Sunny 34 1 34 1 100 100 NNW 7 11 30.29 1026 10 16 N/A
7:35 am 07:35 Sunny 35 1.6 35 1.6 100 100 NW 6 9 30.28 1025 10 16 N/A
7:55 am 07:55 Sunny 37 2.6 37 2.6 100 100 NW 3 6 30.28 1025 10 16 N/A
8:15 am 08:15 Sunny 38 3.4 38 3.4 100 100 WNW 3 6 30.28 1026 10 16 N/A
8:35 am 08:35 Sunny 40 4.2 39 3.8 97 97 NW 7 11 30.27 1025 10 16 N/A
8:55 am 08:55 Sunny 40 4.7 39 4 95 95 NNW 6 9 30.27 1025 10 16 N/A
9:15 am 09:15 Sunny 41 5.2 40 4.4 95 95 NNW 3 6 30.27 1025 10 16 N/A
9:35 am 09:35 Sunny 42 5.8 40 4.5 91 91 N N/A 30.26 1025 10 16 N/A
9:55 am 09:55 Sunny 44 6.7 40 4.6 87 87 N N/A 30.25 1024 10 16 N/A
10:15 am 10:15 Sunny 45 7.4 39 3.9 79 79 N N/A 30.25 1024 10 16 N/A
10:35 am 10:35 Sunny 47 8.3 37 3 70 70 N 3 6 30.23 1024 10 16 N/A
10:55 am 10:55 Sunny 48 8.7 37 2.6 66 66 N 3 6 30.21 1023 10 16 N/A
11:15 am 11:15 Sunny 49 9.6 38 3.1 64 64 NE 7 11 30.21 1023 10 16 N/A
11:35 am 11:35 Sunny 50 9.9 37 2.5 60 60 NE 6 9 30.20 1023 10 16 N/A
11:55 am 11:55 Sunny 51 10.5 37 2.7 59 59 N N/A 30.19 1022 10 16 N/A
12:15 pm 12:15 Sunny 52 11.1 37 3 58 58 E 5 7 30.17 1022 10 16 N/A
12:35 pm 12:35 Sunny 52 11.2 36 2.4 55 55 N N/A 30.17 1022 10 16 N/A
12:55 pm 12:55 Sunny 54 12 37 2.8 54 54 SE 6 9 30.16 1021 10 16 N/A
1:15 pm 13:15 Sunny 54 12.2 36 2.2 51 51 N N/A 30.14 1021 10 16 N/A
1:35 pm 13:35 Sunny 55 12.8 37 2.5 50 50 N N/A 30.13 1020 10 16 N/A
1:55 pm 13:55 Sunny 56 13.5 36 2.4 47 47 N N/A 30.10 1019 10 16 N/A
2:15 pm 14:15 Sunny 57 13.9 35 1.8 44 44 SSE 3 6 30.10 1019 10 16 N/A
2:35 pm 14:35 Sunny 58 14.6 37 2.6 45 45 SE 7 11 30.07 1018 10 16 N/A
2:55 pm 14:55 Sunny 59 15 35 1.7 41 41 SSE 7 11 30.06 1018 10 16 N/A
3:15 pm 15:15 Sunny 59 15.1 33 0.5 37 37 S 3 6 30.05 1018 10 16 N/A
3:35 pm 15:35 Partly Cloudy 60 15.7 35 1.4 38 38 SE 5 7 30.03 1017 10 16 N/A
3:55 pm 15:55 Partly Cloudy 61 16 34 1.2 37 37 SE 6 9 30.02 1017 10 16 N/A
4:15 pm 16:15 Sunny 62 16.4 34 1.2 36 36 ESE 6 9 30.01 1016 10 16 N/A
4:35 pm 16:35 Partly Cloudy 62 16.5 34 1 35 35 SSE 3 6 30.01 1016 10 16 N/A
4:55 pm 16:55 Mostly Cloudy 61 16.3 35 1.6 37 37 SE 9 15 30.00 1016 10 16 N/A
5:15 pm 17:15 Mostly Cloudy 61 16.2 34 0.9 36 36 S 5 7 29.99 1016 10 16 N/A
5:35 pm 17:35 Partly Cloudy 62 16.5 35 1.5 37 37 S 9 15 29.99 1015 10 16 N/A
5:55 pm 17:55 Sunny 61 16 35 1.5 38 38 SSE 9 15 29.99 1016 10 16 N/A
6:15 pm 18:15 Sunny 60 15.8 35 1.5 38 38 S 13 20 29.99 1016 10 16 N/A
6:35 pm 18:35 Sunny 60 15.7 35 1.6 39 39 S 10 17 29.99 1016 10 16 N/A
6:55 pm 18:55 Sunny 59 14.9 35 1.8 41 41 SSE 9 15 30.00 1016 10 16 N/A
7:15 pm 19:15 Mostly Cloudy 58 14.5 36 2.1 43 43 SSE 10 17 30.00 1016 10 16 N/A
7:35 pm 19:35 Mostly Cloudy 58 14.4 36 2.1 44 44 SSE 12 19 30.00 1016 10 16 N/A
7:55 pm 19:55 Cloudy 57 14 36 2.2 45 45 SSE 12 19 30.01 1016 10 16 N/A
8:15 pm 20:15 Cloudy 57 13.7 37 2.5 47 47 SSE 9 15 30.01 1016 10 16 N/A
8:35 pm 20:35 Cloudy 55 12.7 38 3.3 53 53 SSE 9 15 30.02 1017 10 16 N/A
8:55 pm 20:55 Cloudy 54 12.1 40 4.2 59 59 SSE 9 15 30.03 1017 10 16 N/A
9:15 pm 21:15 Cloudy 53 11.6 40 4.2 61 61 SSE 10 17 30.04 1017 10 16 N/A
9:35 pm 21:35 Partly Cloudy 51 10.8 39 4.1 64 64 SSE 9 15 30.05 1017 10 16 N/A
9:55 pm 21:55 Partly Cloudy 50 10.1 39 4.1 67 67 SE 8 13 30.05 1018 10 16 N/A
10:15 pm 22:15 Partly Cloudy 48 8.8 39 3.8 71 71 SE 7 11 30.06 1018 10 16 N/A
10:35 pm 22:35 Clear 47 8.5 39 3.8 73 73 SE 7 11 30.07 1018 10 16 N/A
10:55 pm 22:55 Clear 47 8.2 40 4.4 77 77 SE 6 9 30.07 1018 10 16 N/A
11:15 pm 23:15 Clear 47 8.3 40 4.4 77 77 SSE 6 9 30.08 1019 10 16 N/A
11:35 pm 23:35 Clear 48 9.1 40 4.7 74 74 SE 3 6 30.08 1019 10 16 N/A
11:55 pm 23:55 Clear 49 9.2 40 4.4 72 72 SSE 5 7 30.08 1019 10 16 N/A

Powered by AerisWeather